Regional Weather Roundup
Issued by NWS

Home | Current Version | Previous Version | Text Only | Print | Product List | Glossary Off
Versions: 1 2 3 4 5 6 7 8 9 10 11 12 13 14 15 16 17 18 19 20 21 22 23 24 25 26 27 28 29 30 31 32 33 34 35 36 37 38 39 40 41 42 43 44 45 46 47 48 49 50

000
ASUS43 KFSD 270610
RWRSD

WEATHER ROUNDUP FOR SOUTH DAKOTA
NATIONAL WEATHER SERVICE SIOUX FALLS SD
1200 AM CST FRI FEB 27 2015

NOTE: "FAIR" INDICATES FEW OR NO CLOUDS BELOW 12,000 FEET WITH NO
SIGNIFICANT WEATHER AND/OR OBSTRUCTIONS TO VISIBILITY.


SDZ001>005-009-010-012>017-270700-
NORTHWEST AND NORTH CENTRAL SOUTH DAKOTA

CITY           SKY/WX    TMP DP  RH WIND       PRES   REMARKS
BUFFALO          N/A     -1  -7  75 SW6       30.26F WCI -13
FAITH            N/A     -1  -8  72 S7        30.40F WCI -14
MOBRIDGE       PTCLDY    -9 -13  83 N5        30.45F WCI -20
$$

SDZ012>016-024>037-041>051-057-063-072>074-270700-
SOUTHWEST AND SOUTH CENTRAL SOUTH DAKOTA

CITY           SKY/WX    TMP DP  RH WIND       PRES   REMARKS
RAPID CTY ARPT PTCLDY    -9 -14  78 NW5       30.35F WCI -20
PIERRE         CLEAR     -3 -10  72 CALM      30.50F
CUSTER         CLEAR    -11 -17  75 NW3       30.11F
PHILIP         PTCLDY    -5 -10  79 W3        30.47F
PINE RIDGE     CLEAR     -5 -10  79 CALM      30.36F
WINNER         FAIR       1  -9  62 SW5       30.49F WCI  -9
$$

SDZ004>011-016>023-039-040-270700-
NORTHEAST SOUTH DAKOTA

CITY           SKY/WX    TMP DP  RH WIND       PRES   REMARKS
ABERDEEN       CLEAR     -6 -12  75 NW8       30.53F WCI -21
WATERTOWN      PTCLDY    -6 -12  75 W6        30.45F WCI -19
SISSETON         N/A     -2  -9  72 NW12      30.49F WCI -20
$$

SDZ017-020-022-023-036>040-048>070-270700-
SOUTHEAST SOUTH DAKOTA

CITY           SKY/WX    TMP DP  RH WIND       PRES   REMARKS
SIOUX FALLS    CLEAR     -6 -11  79 NW3       30.52S
HURON          MOCLDY   -16 -20  82 W7        30.54F WCI -32
CHAMBERLAIN    CLEAR     -6 -12  75 CALM      30.52S
MITCHELL       CLEAR     -3  -9  75 W5        30.56F WCI -13
YANKTON        CLEAR     -2  -9  71 CALM      30.58S
$$

ABBREVIATIONS USED IN REMARKS
   TC - TEMPERATURE IN CELSIUS
  WCI - WIND CHILL INDEX
   HX - HEAT INDEX
  VSB - VISIBILITY




USA.gov is the U.S. government's official web portal to all federal, state and local government web resources and services.